Location: Eppenbrunn
(49.1158°N, 7.5601°E)
Time: 16:47:33
(UTC+00:00)

IGS 5A - Pass Details

Date: 23 June 2021
Orbit: 583 x 587 km, 97.6° (Epoch: 17 July)

Event Time Altitude Azimuth Distance (km) Brightness Sun altitude
Exits shadow 20:22:35 - 179° (S) 2,842 6.5 -6.1°
Rises 20:22:40 0° 179° (S) 2,805 6.5 -6.1°
Reaches altitude 10° 20:24:52 10° 185° (S) 1,909 5.7 -6.3°
Maximum altitude 20:28:54 49° 261° (W) 764 4.3 -6.8°
Drops below altitude 10° 20:32:57 10° 337° (NNW) 1,925 7.5 -7.2°
Sets 20:35:11 0° 343° (NNW) 2,831 8.4 -7.5°
